Location: Unspecified
(40.7945°N, 0.0000°E)
Time: 22:06:16
(UTC+00:00)

Explorer 11/Cluster Stage 4 - Pass Details

Date: 25 January 2021
Orbit: 467 x 1257 km, 28.8° (Epoch: 25 February)

Event Time Altitude Azimuth Distance (km) Brightness Sun altitude
Rises 20:04:43 0° 224° (SW) 3,119 10.2 -33.2°
Reaches altitude 10° 20:07:33 10° 208° (SSW) 2,341 9.2 -33.7°
Enters shadow 20:08:19 13° 201° (SSW) 2,179 9.0 -33.9°
